Theta_e
292 295 297 298 303 307 312 315 322 324 326 327 327 331 332 333 332 333 332 330 329 328 326 322 323 324 324 324 324 320 322 322 321 321 321 321 322 324 325 326 329 328 322
291 293 295 296 297 301 304 307 311 315 319 324 328 328 330 333 332 332 332 330 329 329 327 324 322 321 325 325 323 322 320 322 321 321 321 321 322 324 324 326 328 328 323
286 288 289 290 292 296 300 303 305 308 311 315 325 327 330 331 331 332 332 330 329 329 329 327 324 322 323 325 325 322 321 321 321 321 321 321 320 321 323 323 325 325 325
283 284 287 288 287 290 294 298 301 303 307 308 313 323 320 325 330 330 331 330 329 329 329 328 325 324 322 324 323 322 322 321 321 321 321 319 317 319 320 323 324 325 325
282 282 283 285 286 286 289 294 297 300 302 304 305 310 319 318 327 329 328 329 330 329 329 328 327 325 324 321 322 322 322 322 319 321 321 320 317 317 318 319 320 322 323
281 281 282 283 285 286 287 289 293 296 299 301 302 306 313 321 322 325 328 328 329 329 329 328 328 325 324 322 321 324 323 323 322 320 319 320 318 319 318 317 319 319 319
280 281 281 282 283 284 285 286 288 292 295 298 300 302 305 313 315 320 325 326 326 328 329 329 327 326 324 325 321 320 322 322 320 319 319 319 318 319 319 319 318 318 318
280 280 280 280 281 282 284 284 285 288 291 294 298 301 302 307 316 321 320 325 325 326 327 328 327 328 326 327 322 321 319 318 316 316 319 319 319 318 319 319 319 319 319
279 279 280 280 280 281 282 283 284 285 287 291 294 298 301 303 308 318 320 322 324 324 325 327 327 327 326 324 325 322 318 318 315 315 316 317 318 318 319 318 318 315 319
278 278 279 280 280 281 281 282 283 283 285 288 292 294 299 301 304 308 318 320 325 325 324 325 326 326 326 325 325 322 318 318 316 314 314 313 313 315 318 318 317 316 315
278 278 278 279 279 280 281 282 282 283 285 287 289 292 297 301 302 306 314 317 324 323 323 324 324 325 327 326 325 323 321 319 317 314 313 314 316 318 318 318 318 317 316
277 277 278 278 279 280 281 281 281 282 283 285 287 290 294 300 303 305 311 317 320 324 323 323 322 324 324 324 324 324 323 321 319 316 315 315 318 319 319 319 318 316 315
277 277 277 278 278 279 280 280 281 281 282 284 286 289 292 294 301 305 308 314 318 320 322 321 322 323 323 322 324 324 324 325 323 318 318 317 317 317 319 317 317 316 316
276 276 277 277 278 278 279 280 281 281 282 284 285 287 289 292 298 300 307 310 318 321 319 321 321 322 321 322 323 322 325 325 324 323 322 320 320 319 317 316 316 316 317
276 276 276 276 277 278 279 279 280 281 282 284 285 286 288 290 293 298 307 311 316 318 322 320 321 321 321 321 321 322 323 325 324 323 324 321 322 322 321 321 320 319 318
275 275 275 276 277 277 278 279 280 281 282 283 284 285 287 288 292 296 303 309 313 317 317 320 320 321 320 320 321 322 323 324 324 324 324 323 323 322 322 322 322 321 321
275 275 275 275 277 277 277 278 280 281 282 282 284 285 286 287 292 294 299 305 311 316 317 319 319 319 320 321 321 322 322 324 322 324 323 322 323 323 322 322 322 321 320
274 274 274 275 276 277 278 279 280 281 281 282 284 284 285 287 290 292 296 302 309 312 315 315 320 320 320 321 322 321 319 322 322 323 321 320 319 322 322 321 321 320 320
274 274 274 275 276 276 278 278 279 280 281 282 283 284 284 286 289 290 292 300 308 312 316 318 320 319 319 319 322 322 322 322 323 321 319 318 319 320 320 319 320 320 319
274 274 275 275 276 276 277 278 279 280 280 281 282 283 284 285 287 289 290 294 298 305 313 315 315 318 319 319 318 320 321 321 321 320 319 318 318 319 319 318 317 316 316
273 273 275 275 275 276 276 277 278 279 280 280 281 283 284 285 286 288 290 291 294 297 304 308 311 314 318 319 318 318 319 318 319 319 317 316 316 317 317 317 317 316 314
273 274 274 275 275 275 276 276 277 278 279 280 281 282 283 285 286 287 288 290 291 294 297 299 300 303 311 318 318 318 317 318 317 318 316 315 316 315 314 314 316 316 315
272 273 273 274 275 275 275 275 277 278 279 280 280 281 281 284 285 285 286 287 288 289 291 293 297 299 305 310 316 316 316 316 316 315 315 314 313 314 314 315 314 313 312
271 272 273 273 274 275 275 275 277 278 278 279 279 281 281 282 284 284 284 285 286 287 288 290 291 294 296 299 302 310 313 313 314 314 313 313 313 313 313 311 311 312 312
271 272 272 273 273 274 274 274 276 277 278 278 278 280 280 281 283 283 283 284 285 286 286 287 287 289 290 293 296 301 305 309 311 312 312 313 312 311 311 310 311 310 310
271 272 272 272 273 274 274 274 275 276 277 278 277 279 280 280 281 282 284 284 284 285 285 286 287 288 289 292 295 296 298 300 304 307 308 308 309 309 309 309 308 308 308
Wind_Speed
27 26 27 27 26 21 15 11 13 13 17 22 32 39 43 43 44 42 40 36 33 30 29 32 33 33 34 35 34 31 32 29 27 26 25 19 16 15 15 18 23 25 22
32 31 33 33 29 30 26 22 17 14 12 18 18 26 40 44 44 44 44 42 38 35 34 34 33 33 38 37 36 32 35 32 30 31 27 24 21 19 20 17 20 19 19
38 37 38 39 38 33 33 30 29 24 19 18 22 18 30 42 43 45 45 46 43 40 38 36 35 35 39 38 41 37 34 39 33 32 23 16 13 27 24 23 20 20 22
32 34 37 40 42 39 36 38 35 36 29 27 23 25 18 23 44 49 44 46 48 45 42 41 39 36 35 41 44 40 38 37 38 35 36 22 15 22 17 29 26 24 28
33 35 36 36 39 39 38 36 40 41 40 35 32 31 28 24 21 44 48 49 48 50 47 45 44 41 38 39 45 43 42 40 42 42 39 33 20 18 19 24 33 31 28
33 34 36 36 37 38 39 37 37 40 43 43 39 36 35 30 28 21 51 49 49 51 53 52 50 45 41 38 41 45 45 43 42 43 41 40 31 27 24 20 33 35 31
34 36 38 40 41 39 38 38 37 38 39 43 43 40 39 42 34 27 32 47 51 51 53 55 56 53 46 37 38 43 46 45 44 45 44 40 36 27 24 21 22 27 23
34 35 36 37 38 38 37 36 37 38 35 40 44 45 43 41 42 34 29 48 52 50 52 53 51 53 47 44 43 40 41 42 42 41 43 42 38 33 28 26 20 20 21
35 35 35 34 35 35 35 35 36 37 35 34 41 42 45 45 46 46 36 37 54 51 49 50 52 54 50 51 42 42 44 44 40 39 38 40 40 39 34 30 27 20 23
34 36 35 35 35 33 33 32 31 33 34 32 36 40 43 46 47 50 51 31 52 48 45 46 44 54 52 51 47 46 45 43 39 37 37 37 37 37 41 38 35 32 27
32 35 36 35 34 34 32 31 31 31 32 30 31 36 38 42 46 43 50 38 38 50 41 45 45 50 54 53 55 49 45 43 41 38 37 38 35 33 32 33 33 31 30
30 33 35 36 35 35 34 33 31 30 28 27 28 31 33 37 44 44 52 45 44 44 46 41 43 49 53 55 55 51 48 45 43 41 38 40 38 36 33 32 32 31 31
31 34 35 37 37 36 35 35 33 30 27 25 24 24 29 32 37 39 44 40 40 56 40 42 41 43 52 54 55 54 51 48 48 44 42 40 42 39 38 36 34 33 33
28 33 36 37 36 36 36 36 34 31 29 25 22 20 22 26 33 35 44 49 48 31 44 45 44 42 42 49 53 57 54 50 46 41 41 42 41 39 42 41 39 36 35
29 34 37 38 37 37 36 36 34 32 29 27 23 22 19 20 28 32 40 44 47 50 38 48 46 44 44 43 48 52 53 53 49 42 44 45 44 42 41 40 37 38 37
30 35 36 37 36 37 37 36 35 33 30 29 26 24 19 17 20 22 32 51 41 51 54 55 53 48 46 46 45 49 52 51 49 47 47 44 43 40 41 39 39 39 36
32 35 34 35 34 36 37 36 35 33 31 30 27 26 22 18 13 14 21 34 53 45 43 56 53 50 47 48 46 46 47 47 45 44 44 37 40 35 36 35 35 35 32
31 32 33 31 32 34 35 34 34 33 32 32 30 28 26 22 11 7 8 21 40 42 47 47 51 50 49 44 52 45 45 43 39 40 37 35 36 35 36 33 31 32 32
29 29 30 28 30 33 34 35 34 34 34 34 33 31 29 27 20 13 8 7 23 35 38 40 39 50 50 43 40 44 48 42 41 36 33 31 29 31 28 29 31 30 32
27 28 28 27 29 32 34 35 35 36 35 35 34 31 30 29 26 21 19 14 10 14 35 29 33 57 48 43 42 37 38 38 37 35 32 31 30 29 29 32 32 32 33
26 27 27 27 29 31 33 35 35 36 34 34 32 30 30 30 32 27 25 22 19 18 16 22 26 41 38 44 41 36 35 36 38 38 35 34 32 30 31 32 35 36 33
26 27 28 27 29 31 34 36 35 33 32 33 33 29 29 29 35 37 33 29 28 26 25 18 14 22 34 51 40 36 33 34 37 36 33 33 31 32 32 35 36 33 32
25 26 27 27 28 30 33 35 34 31 33 32 35 32 32 29 33 39 40 38 34 33 31 28 23 17 8 20 40 40 37 34 33 32 30 31 32 32 32 32 31 30 28
26 25 26 28 29 30 31 34 33 30 32 34 34 34 34 31 31 35 37 41 40 40 35 34 30 26 18 10 9 22 30 33 32 30 29 30 29 30 30 28 28 29 28
24 23 24 26 28 28 30 34 32 30 31 34 34 35 34 35 32 30 31 32 34 33 36 33 32 27 26 20 11 6 15 26 31 32 31 32 33 33 32 32 30 30 29
23 23 22 24 27 27 29 33 32 30 30 30 36 31 32 33 32 30 28 27 27 29 30 32 32 28 20 16 14 13 9 14 21 27 29 32 34 34 33 32 32 31 30
Wind_Direction
338 329 321 314 311 308 297 299 268 246 251 248 256 250 245 239 236 226 222 227 227 227 219 215 213 215 208 210 212 200 195 190 195 190 196 193 193 208 190 196 186 197 183
341 336 330 321 320 315 307 299 292 279 259 246 237 248 246 239 243 234 222 227 228 227 224 219 218 215 208 211 207 204 198 195 197 195 189 189 201 203 213 201 199 199 191
347 339 335 332 328 320 310 302 299 294 286 277 247 255 239 243 241 237 227 223 228 228 229 226 223 219 215 213 210 205 208 203 199 204 194 187 206 203 207 213 207 202 198
352 344 336 333 332 328 317 307 295 293 284 288 278 254 278 248 240 239 237 227 227 228 227 229 226 222 219 214 211 211 210 212 204 204 212 208 206 192 201 212 213 214 215
351 346 341 333 328 328 324 311 303 291 290 287 286 276 253 266 245 240 239 235 230 231 227 226 228 223 220 218 214 213 212 211 215 210 208 215 212 208 202 202 207 215 222
351 346 340 336 328 325 324 318 307 300 289 286 285 278 269 259 252 246 233 234 233 231 229 227 226 224 223 216 217 219 218 218 221 219 217 213 209 204 207 212 211 212 215
352 348 345 340 335 330 326 323 315 303 296 286 281 278 270 257 260 240 242 236 236 230 228 225 221 218 221 223 222 223 222 221 221 219 219 218 217 215 212 213 203 207 220
350 347 344 342 336 331 327 323 320 310 300 291 282 277 273 264 248 246 263 231 234 231 229 224 223 229 218 222 220 225 223 220 218 219 218 220 219 219 219 217 202 201 213
347 344 342 342 339 334 329 326 322 316 308 294 286 276 270 266 255 246 243 244 232 231 228 226 226 222 219 220 222 223 222 221 218 220 219 222 223 221 220 221 214 224 213
344 343 342 342 340 337 333 327 323 318 313 302 286 281 268 264 260 249 248 259 224 226 228 227 226 223 219 224 223 221 220 219 217 219 219 221 224 223 224 225 229 238 233
342 342 342 342 341 340 337 334 331 324 316 307 293 281 269 264 260 255 246 246 231 217 224 225 224 225 226 223 228 220 222 220 220 216 218 221 223 222 223 224 227 227 228
340 343 344 343 343 343 341 340 336 332 325 314 300 287 271 261 255 252 233 243 233 228 217 221 227 225 222 223 222 222 223 221 221 218 215 219 222 224 225 226 224 224 227
343 346 347 345 344 344 344 343 339 337 335 325 312 296 275 264 254 251 248 244 238 226 227 224 224 226 225 223 226 224 224 227 225 217 217 220 221 224 228 229 229 231 231
343 343 346 345 346 346 346 344 342 344 345 335 328 317 296 275 255 251 240 237 231 228 231 230 226 225 230 226 224 225 228 231 226 224 227 222 224 222 228 230 233 235 235
344 344 343 345 345 348 348 347 347 350 352 349 345 338 319 294 267 248 235 233 233 223 221 231 226 224 226 225 225 226 229 229 224 223 231 227 229 228 230 231 231 235 236
342 342 343 345 348 351 350 350 352 354 358 359 356 353 342 315 274 251 236 225 226 221 227 226 226 221 226 228 227 225 224 226 223 225 229 231 230 231 232 239 236 241 240
343 342 342 344 348 352 352 353 356 358 2 4 5 1 359 347 304 274 234 224 226 215 219 216 223 222 224 225 225 222 221 220 221 223 225 228 236 233 238 241 238 235 239
343 342 342 343 350 353 354 357 2 3 5 9 11 9 7 12 359 325 242 220 216 223 231 226 222 219 221 221 223 219 220 220 220 218 222 227 230 233 232 234 234 236 240
340 342 341 346 352 354 357 1 4 6 10 14 14 14 16 21 24 28 42 183 207 212 215 210 209 220 219 214 214 212 210 215 216 215 217 225 230 232 231 237 235 240 243
342 345 344 352 357 356 360 3 5 9 11 16 17 18 23 33 36 42 49 77 125 168 201 203 196 211 215 207 216 216 202 213 218 215 218 224 231 230 228 234 236 242 247
343 345 353 358 0 360 3 4 5 9 12 18 24 22 26 41 46 52 55 66 82 111 141 179 180 199 205 205 206 211 212 218 218 216 217 225 228 233 234 239 243 246 248
350 354 357 0 3 4 6 4 5 8 15 22 25 24 28 41 51 53 57 57 65 75 98 120 126 154 189 204 201 205 212 219 216 218 223 230 232 237 240 246 243 240 243
355 357 360 1 6 7 10 5 3 8 16 23 24 28 32 39 49 52 50 50 56 62 69 71 77 75 171 183 195 207 210 213 215 222 229 239 238 238 241 234 239 235 231
357 358 0 4 5 8 9 8 6 9 16 22 21 27 31 37 46 51 48 49 42 44 51 57 59 60 68 112 190 202 209 216 221 224 226 230 230 227 232 227 228 228 231
355 0 1 3 5 5 9 11 10 11 14 22 19 27 29 34 43 48 48 47 51 46 47 50 54 51 53 55 66 155 197 208 213 219 219 217 218 222 221 217 216 214 213
352 357 1 3 6 6 10 10 12 15 15 20 15 21 27 31 38 43 52 56 56 56 54 52 52 55 59 74 89 91 128 165 199 205 205 204 204 204 207 208 207 207 208